Location: Huntsville
(41.2590°N, 111.7678°W)
Time: 08:08:49
(UTC+00:00)

Altair - All Passes

Search period start: 25 September 2022 00:00
Search period end: 05 October 2022 00:00
Orbit: 1501 x 1682 km, 47.2° (Epoch: 24 September)

Date Brightness Start Highest point End Pass type
(mag) Time Alt. Az. Time Alt. Az. Time Alt. Az.
25 Sep - 11:42:43 10° SSE 11:48:08 16° ESE 11:53:36 10° E visible
25 Sep - 13:41:44 10° SW 13:51:16 58° SE 14:01:05 10° ENE daylight
25 Sep - 15:46:06 10° WSW 15:56:06 73° NNW 16:06:19 10° ENE daylight
25 Sep - 17:51:58 10° WNW 18:02:03 64° N 18:12:08 10° E daylight
25 Sep - 19:57:18 10° WNW 20:07:32 82° SSW 20:17:35 10° SE daylight
25 Sep - 22:03:01 10° WNW 22:11:27 31° SW 22:19:45 10° S daylight
26 Sep - 11:18:33 10° SSE 11:23:06 14° ESE 11:27:42 10° E visible
26 Sep - 13:16:42 10° SSW 13:26:06 54° SE 13:35:48 10° ENE daylight
26 Sep - 15:20:50 10° WSW 15:30:49 75° NNW 15:41:03 10° ENE daylight
26 Sep - 17:26:42 10° WNW 17:36:44 63° N 17:46:50 10° E daylight
26 Sep - 19:32:04 10° WNW 19:42:18 86° SSW 19:52:24 10° ESE daylight
26 Sep - 21:37:38 10° WNW 21:46:21 34° SW 21:54:56 10° SSE daylight
27 Sep - 10:54:41 10° SE 10:58:04 12° ESE 11:01:29 10° E visible
27 Sep - 12:51:43 10° SSW 13:00:58 50° SE 13:10:31 10° ENE visible
27 Sep - 14:55:35 10° WSW 15:05:33 78° NNW 15:15:47 10° ENE daylight
27 Sep - 17:01:24 10° WNW 17:11:25 63° N 17:21:30 10° E daylight
27 Sep - 19:06:49 10° WNW 19:17:04 90° WNW 19:27:12 10° ESE daylight
27 Sep - 21:12:16 10° WNW 21:21:14 37° SW 21:30:05 10° SSE daylight
28 Sep - 10:31:47 10° SE 10:33:03 10° ESE 10:34:19 10° ESE visible
28 Sep - 12:26:46 10° SSW 12:35:50 46° SE 12:45:12 10° ENE visible
28 Sep - 14:30:21 10° WSW 14:40:17 81° NNW 14:50:31 10° ENE daylight
28 Sep - 16:36:07 10° W 16:46:06 62° N 16:56:12 10° E daylight
28 Sep - 18:41:35 10° WNW 18:51:50 87° NNE 19:01:59 10° ESE daylight
28 Sep - 20:46:56 10° WNW 20:56:07 41° SW 21:05:10 10° SSE daylight
29 Sep - 12:01:50 10° SSW 12:10:43 43° SE 12:19:53 10° ENE visible
29 Sep - 14:05:08 10° WSW 14:15:02 84° NNW 14:25:15 10° ENE daylight
29 Sep - 16:10:50 10° W 16:20:47 62° N 16:30:53 10° E daylight
29 Sep - 18:16:21 10° WNW 18:26:34 83° NNE 18:36:44 10° ESE daylight
29 Sep - 20:21:37 10° WNW 20:30:59 44° SW 20:40:14 10° SSE daylight
30 Sep - 11:36:55 10° SSW 11:45:36 39° SE 11:54:33 10° ENE visible
30 Sep - 13:39:56 10° WSW 13:49:47 87° NNW 14:00:00 10° ENE daylight
30 Sep - 15:45:32 10° W 15:55:28 62° N 16:05:34 10° E daylight
30 Sep - 17:51:06 10° WNW 18:01:18 80° NNE 18:11:29 10° ESE daylight
30 Sep - 19:56:19 10° WNW 20:05:51 48° SW 20:15:16 10° SSE daylight
30 Sep - 22:06:03 10° WSW 22:08:45 11° WSW 22:11:27 10° SW daylight
01 Oct - 11:12:03 10° SSW 11:20:30 36° SE 11:29:12 10° ENE visible
01 Oct - 13:14:44 10° WSW 13:24:33 89° SSE 13:34:44 10° ENE daylight
01 Oct - 15:20:15 10° W 15:30:08 63° N 15:40:15 10° ENE daylight
01 Oct - 17:25:51 10° WNW 17:36:01 77° NNE 17:46:14 10° ESE daylight
01 Oct - 19:31:01 10° WNW 19:40:41 51° SW 19:50:16 10° SSE daylight
01 Oct - 21:39:34 10° W 21:43:43 13° WSW 21:47:51 10° SW daylight
02 Oct - 10:47:15 10° S 10:55:24 33° SE 11:03:50 10° ENE visible
02 Oct - 12:49:34 10° WSW 12:59:20 85° SSE 13:09:28 10° ENE visible
02 Oct - 14:54:58 10° W 15:04:50 63° N 15:14:56 10° ENE daylight
02 Oct - 17:00:37 10° WNW 17:10:45 75° NNE 17:20:57 10° ESE daylight
02 Oct - 19:05:45 10° WNW 19:15:32 55° SW 19:25:14 10° SSE daylight
02 Oct - 21:13:32 10° W 21:18:41 15° WSW 21:23:48 10° SSW daylight
03 Oct - 10:22:28 10° S 10:30:20 30° SE 10:38:26 10° ENE visible
03 Oct - 12:24:25 10° SW 12:34:07 81° SSE 12:44:12 10° ENE visible
03 Oct - 14:29:41 10° W 14:39:31 64° N 14:49:38 10° ENE daylight
03 Oct - 16:35:22 10° WNW 16:45:27 73° NNE 16:55:39 10° ESE daylight
03 Oct - 18:40:29 10° WNW 18:50:21 59° SW 19:00:11 10° SE daylight
03 Oct - 20:47:43 10° W 20:53:37 17° WSW 20:59:30 10° SSW daylight
04 Oct - 09:57:44 10° S 10:05:15 27° SE 10:12:59 10° ENE visible
04 Oct - 11:59:16 10° SW 12:08:55 77° SSE 12:18:57 10° ENE visible
04 Oct - 14:04:25 10° W 14:14:13 65° N 14:24:19 10° ENE daylight
04 Oct - 16:10:07 10° WNW 16:20:10 71° NNE 16:30:21 10° E daylight
04 Oct - 18:15:14 10° WNW 18:25:10 63° SW 18:35:06 10° SE daylight
04 Oct - 20:22:02 10° W 20:28:34 20° SW 20:35:05 10° SSW daylight
